• In Czech Republic
  • List of Countries
  • For 7 days
  • Water Temperature
  • Satellite Maps
  • Weather Map
  • Weather Widgets
  • user-avatar
    Login

    Hourly Weather Giumri

    Today, 19 August, Saturday

    Time Temperature Precipitation Wind Pressure Humidity
    00:00 +17°C° 0.5 mm 2 mps 635 mmHg 84%
    01:00 +17°C° 0.3 mm 2 mps 635 mmHg 85%
    02:00 +17°C° 0.3 mm 2 mps 635 mmHg 85%
    03:00 +16°C° 0.3 mm 2 mps 635 mmHg 86%
    04:00 +16°C° 0 mm 2 mps 635 mmHg 86%
    05:00 +16°C° 0 mm 2 mps 635 mmHg 86%
    06:00 +16°C° 0 mm 1 mps 635 mmHg 86%
    07:00 +18°C° 0 mm 2 mps 636 mmHg 77%
    08:00 +20°C° 0 mm 2 mps 637 mmHg 67%
    09:00 +24°C° 0 mm 2 mps 637 mmHg 58%
    10:00 +25°C° 0 mm 2 mps 638 mmHg 53%
    11:00 +27°C° 0 mm 3 mps 638 mmHg 48%
    12:00 +28°C° 0 mm 3 mps 638 mmHg 42%
    13:00 +28°C° 0 mm 3 mps 638 mmHg 41%
    14:00 +29°C° 0 mm 3 mps 638 mmHg 40%
    15:00 +29°C° 0 mm 3 mps 638 mmHg 39%
    16:00 +28°C° 0 mm 3 mps 637 mmHg 43%
    17:00 +27°C° 0 mm 3 mps 637 mmHg 48%
    18:00 +25°C° 0 mm 3 mps 637 mmHg 53%
    19:00 +22°C° 0.1 mm 3 mps 636 mmHg 60%
    20:00 +20°C° 0.1 mm 3 mps 636 mmHg 67%
    21:00 +18°C° 0.1 mm 3 mps 636 mmHg 74%
    22:00 +18°C° 0 mm 3 mps 636 mmHg 73%
    23:00 +17°C° 0 mm 2 mps 636 mmHg 72%

    Tomorrow, 20 August, Sunday

    Time Temperature Precipitation Wind Pressure Humidity
    00:00 +16°C° 0 mm 2 mps 636 mmHg 71%
    01:00 +16°C° 0 mm 2 mps 636 mmHg 71%
    02:00 +16°C° 0 mm 2 mps 636 mmHg 71%
    03:00 +15°C° 0 mm 2 mps 635 mmHg 71%
    04:00 +15°C° 0 mm 2 mps 635 mmHg 70%
    05:00 +15°C° 0 mm 2 mps 635 mmHg 70%
    06:00 +15°C° 0 mm 2 mps 636 mmHg 70%
    07:00 +18°C° 0 mm 2 mps 636 mmHg 62%
    08:00 +20°C° 0 mm 2 mps 637 mmHg 54%
    09:00 +24°C° 0 mm 2 mps 637 mmHg 47%
    10:00 +25°C° 0 mm 3 mps 638 mmHg 43%
    11:00 +27°C° 0 mm 3 mps 638 mmHg 40%
    12:00 +28°C° 0 mm 3 mps 638 mmHg 36%
    13:00 +29°C° 0 mm 3 mps 638 mmHg 35%
    14:00 +29°C° 0 mm 3 mps 637 mmHg 34%
    15:00 +30°C° 0 mm 3 mps 637 mmHg 33%
    16:00 +28°C° 0 mm 3 mps 637 mmHg 38%
    17:00 +27°C° 0 mm 3 mps 636 mmHg 42%
    18:00 +25°C° 0 mm 3 mps 636 mmHg 47%
    19:00 +22°C° 0 mm 3 mps 635 mmHg 50%
    20:00 +20°C° 0 mm 3 mps 635 mmHg 53%
    21:00 +18°C° 0 mm 3 mps 635 mmHg 57%
    22:00 +18°C° 0 mm 2 mps 635 mmHg 56%
    23:00 +17°C° 0 mm 2 mps 635 mmHg 55%

    Day after tomorrow, 21 August, Monday

    Time Temperature Precipitation Wind Pressure Humidity
    00:00 +16°C° 0 mm 2 mps 635 mmHg 54%
    01:00 +16°C° 0 mm 2 mps 635 mmHg 55%
    02:00 +15°C° 0 mm 2 mps 635 mmHg 56%
    03:00 +15°C° 0 mm 2 mps 634 mmHg 57%
    04:00 +15°C° 0 mm 2 mps 634 mmHg 58%
    05:00 +15°C° 0 mm 2 mps 634 mmHg 60%
    06:00 +15°C° 0 mm 2 mps 634 mmHg 61%
    07:00 +18°C° 0 mm 2 mps 635 mmHg 54%
    08:00 +20°C° 0 mm 2 mps 636 mmHg 47%
    09:00 +24°C° 0 mm 2 mps 636 mmHg 41%
    10:00 +26°C° 0 mm 2 mps 637 mmHg 36%
    11:00 +28°C° 0 mm 2 mps 637 mmHg 32%
    12:00 +29°C° 0 mm 3 mps 637 mmHg 27%
    13:00 +30°C° 0 mm 3 mps 637 mmHg 26%
    14:00 +30°C° 0 mm 3 mps 636 mmHg 24%
    15:00 +31°C° 0 mm 3 mps 636 mmHg 23%
    16:00 +29°C° 0 mm 3 mps 636 mmHg 28%
    17:00 +28°C° 0 mm 2 mps 635 mmHg 33%
    18:00 +27°C° 0 mm 2 mps 635 mmHg 38%
    19:00 +24°C° 0 mm 2 mps 634 mmHg 45%
    20:00 +21°C° 0 mm 2 mps 634 mmHg 52%
    21:00 +19°C° 0 mm 2 mps 634 mmHg 58%
    22:00 +18°C° 0 mm 2 mps 634 mmHg 60%
    23:00 +18°C° 0 mm 2 mps 634 mmHg 61%

    22 August, Tuesday

    Time Temperature Precipitation Wind Pressure Humidity
    00:00 +17°C° 0 mm 2 mps 634 mmHg 63%
    01:00 +17°C° 0 mm 2 mps 633 mmHg 64%
    02:00 +16°C° 0 mm 1 mps 633 mmHg 65%
    03:00 +16°C° 0 mm 1 mps 633 mmHg 66%
    04:00 +16°C° 0 mm 1 mps 633 mmHg 65%
    05:00 +16°C° 0 mm 1 mps 633 mmHg 64%
    06:00 +16°C° 0 mm 1 mps 633 mmHg 63%
    07:00 +20°C° 0 mm 1 mps 634 mmHg 53%
    08:00 +23°C° 0 mm 2 mps 635 mmHg 43%
    09:00 +26°C° 0 mm 2 mps 636 mmHg 33%
    10:00 +28°C° 0 mm 3 mps 636 mmHg 30%
    11:00 +29°C° 0 mm 3 mps 636 mmHg 27%
    12:00 +31°C° 0 mm 3 mps 636 mmHg 25%
    13:00 +31°C° 0 mm 3 mps 636 mmHg 24%
    14:00 +33°C° 0 mm 3 mps 636 mmHg 23%
    15:00 +33°C° 0 mm 3 mps 636 mmHg 22%
    16:00 +31°C° 0 mm 3 mps 635 mmHg 28%
    17:00 +29°C° 0 mm 3 mps 635 mmHg 33%
    18:00 +28°C° 0 mm 3 mps 634 mmHg 39%
    19:00 +25°C° 0 mm 3 mps 634 mmHg 45%
    20:00 +22°C° 0 mm 3 mps 634 mmHg 51%
    21:00 +19°C° 0 mm 3 mps 634 mmHg 57%
    22:00 +19°C° 0 mm 2 mps 634 mmHg 57%
    23:00 +18°C° 0 mm 2 mps 634 mmHg 57%

    23 August, Wednesday

    Time Temperature Precipitation Wind Pressure Humidity
    00:00 +18°C° 0 mm 2 mps 634 mmHg 57%
    01:00 +17°C° 0 mm 2 mps 634 mmHg 58%
    02:00 +17°C° 0 mm 2 mps 634 mmHg 58%
    03:00 +16°C° 0 mm 2 mps 634 mmHg 59%
    04:00 +16°C° 0 mm 2 mps 634 mmHg 59%
    05:00 +16°C° 0 mm 2 mps 634 mmHg 60%
    06:00 +16°C° 0 mm 2 mps 634 mmHg 60%
    07:00 +19°C° 0 mm 2 mps 635 mmHg 54%
    08:00 +23°C° 0 mm 2 mps 636 mmHg 47%
    09:00 +25°C° 0 mm 2 mps 636 mmHg 40%
    10:00 +27°C° 0 mm 2 mps 637 mmHg 37%
    11:00 +28°C° 0 mm 2 mps 637 mmHg 34%
    12:00 +30°C° 0 mm 3 mps 637 mmHg 31%
    13:00 +30°C° 0 mm 3 mps 637 mmHg 30%
    14:00 +31°C° 0 mm 3 mps 637 mmHg 29%
    15:00 +31°C° 0 mm 3 mps 637 mmHg 28%
    16:00 +30°C° 0 mm 3 mps 637 mmHg 34%
    17:00 +28°C° 0 mm 3 mps 636 mmHg 40%
    18:00 +26°C° 0 mm 4 mps 636 mmHg 45%
    19:00 +24°C° 0 mm 3 mps 636 mmHg 49%
    20:00 +21°C° 0 mm 3 mps 636 mmHg 52%
    21:00 +19°C° 0 mm 3 mps 636 mmHg 55%
    22:00 +18°C° 0 mm 3 mps 636 mmHg 54%
    23:00 +18°C° 0 mm 3 mps 636 mmHg 53%

    24 August, Thursday

    Time Temperature Precipitation Wind Pressure Humidity
    00:00 +17°C° 0 mm 3 mps 636 mmHg 53%
    01:00 +17°C° 0 mm 3 mps 636 mmHg 53%
    02:00 +16°C° 0 mm 3 mps 636 mmHg 54%
    03:00 +16°C° 0 mm 3 mps 636 mmHg 54%
    04:00 +16°C° 0 mm 2 mps 636 mmHg 55%
    05:00 +15°C° 0 mm 2 mps 636 mmHg 56%
    06:00 +15°C° 0 mm 2 mps 636 mmHg 57%
    07:00 +18°C° 0 mm 2 mps 637 mmHg 52%
    08:00 +21°C° 0 mm 2 mps 637 mmHg 46%
    09:00 +24°C° 0 mm 2 mps 638 mmHg 40%
    10:00 +26°C° 0 mm 2 mps 638 mmHg 37%
    11:00 +28°C° 0 mm 2 mps 638 mmHg 34%
    12:00 +29°C° 0 mm 3 mps 638 mmHg 31%
    13:00 +30°C° 0 mm 3 mps 638 mmHg 29%
    14:00 +31°C° 0 mm 3 mps 638 mmHg 28%
    15:00 +31°C° 0 mm 3 mps 638 mmHg 27%
    16:00 +30°C° 0 mm 3 mps 638 mmHg 32%
    17:00 +28°C° 0 mm 3 mps 637 mmHg 37%
    18:00 +26°C° 0 mm 3 mps 637 mmHg 41%
    19:00 +24°C° 0 mm 3 mps 637 mmHg 44%
    20:00 +21°C° 0 mm 3 mps 636 mmHg 47%
    21:00 +19°C° 0 mm 3 mps 636 mmHg 50%
    22:00 +18°C° 0 mm 3 mps 636 mmHg 49%
    23:00 +18°C° 0 mm 2 mps 636 mmHg 48%
    Show more